Sigfox identifier Datetime Temperature Humidity SNR
002EEB25 2019-04-23 15:02:01 15.8 33 19.9
002EEB25 2019-04-23 14:26:55 15.7 33 19.6
002EEB25 2019-04-23 13:51:48 15.6 33 19.2
002EEB25 2019-04-23 13:16:42 15.6 33 19.1
002EEB25 2019-04-23 12:41:34 15.6 33 19
002EEB25 2019-04-23 12:06:29 15.6 33 18.4
002EEB25 2019-04-23 11:31:22 15.6 33 18.3
002EEB25 2019-04-23 10:56:17 15.6 33 17.7
002EEB25 2019-04-23 10:21:10 15.6 33 16.7
002EEB25 2019-04-23 09:46:05 15.6 33 16.4
002EEB25 2019-04-23 09:10:59 15.6 33 15.3
002EEB25 2019-04-23 08:35:53 15.6 33 13.9
002EEB25 2019-04-23 08:00:46 15.6 33 11.8
002EEB25 2019-04-23 07:25:41 15.6 33 11.8
002EEB25 2019-04-23 06:50:33 15.6 33 11.6
002EEB25 2019-04-23 06:15:26 15.6 33 11.4
002EEB25 2019-04-23 05:40:19 15.6 33 11.1
002EEB25 2019-04-23 05:05:13 15.6 33 11
002EEB25 2019-04-23 04:30:08 15.6 33 10.6
002EEB25 2019-04-23 03:55:04 15.6 33 10.4
002EEB25 2019-04-23 03:19:57 15.6 32 10.4
002EEB25 2019-04-23 02:44:52 15.6 32 10.7
002EEB25 2019-04-23 02:09:47 15.6 32 10.9
002EEB25 2019-04-23 01:34:40 15.6 32 10.9
002EEB25 2019-04-23 00:59:34 15.6 32 11
002EEB25 2019-04-23 00:24:28 15.7 32 11.2
002EEB25 2019-04-22 23:49:26 15.7 32 11.1
002EEB25 2019-04-22 23:14:15 15.8 32 11.5
002EEB25 2019-04-22 22:39:11 15.8 32 11.7
002EEB25 2019-04-22 22:04:05 15.8 32 12
002EEB25 2019-04-22 20:53:52 15.8 32 12.2
002EEB25 2019-04-22 20:18:47 15.8 32 12.4
002EEB25 2019-04-22 19:08:36 15.8 32 12.6
002EEB25 2019-04-22 18:33:30 15.7 32 12.8
002EEB25 2019-04-22 17:58:23 15.7 32 12.8
002EEB25 2019-04-22 17:23:18 15.6 32 12.9
002EEB25 2019-04-22 16:48:14 15.6 32 13.1
002EEB25 2019-04-22 16:13:06 15.6 32 13.2
002EEB25 2019-04-22 15:38:03 15.6 32 13.3
002EEB25 2019-04-22 14:27:48 15.6 32 13.3
002EEB25 2019-04-22 13:52:49 15.6 32 13.4
002EEB25 2019-04-22 13:17:48 15.6 32 13.6
002EEB25 2019-04-22 12:42:51 15.6 32 13.6
002EEB25 2019-04-22 12:07:49 15.6 32 13.6
002EEB25 2019-04-22 11:32:47 15.6 32 13.6
002EEB25 2019-04-22 10:57:47 15.6 32 13.6
002EEB25 2019-04-22 10:22:47 15.6 32 13.4
002EEB25 2019-04-22 09:47:48 15.6 32 13.2
002EEB25 2019-04-22 09:12:44 15.6 32 13.1
002EEB25 2019-04-22 08:37:39 15.6 32 13
002EEB25 2019-04-22 08:02:34 15.6 32 12.8
002EEB25 2019-04-22 07:27:30 15.6 32 12.9
002EEB25 2019-04-22 06:52:25 15.6 32 12.7
002EEB25 2019-04-22 06:17:20 15.4 32 12.6
002EEB25 2019-04-22 05:42:14 15.5 32 12.4
002EEB25 2019-04-22 05:07:09 15.5 32 12.3
002EEB25 2019-04-22 04:32:06 15.4 32 12.3
002EEB25 2019-04-22 03:57:02 15.5 32 12.1
002EEB25 2019-04-22 03:21:57 15.4 32 12.1
002EEB25 2019-04-22 02:46:56 15.4 32 12.1
002EEB25 2019-04-22 02:11:50 15.4 32 11.9
002EEB25 2019-04-22 01:36:46 15.4 32 11.8
002EEB25 2019-04-22 01:01:41 15.4 32 11.8
002EEB25 2019-04-22 00:26:37 15.5 31 11.8
002EEB25 2019-04-21 23:51:34 15.4 31 12
002EEB25 2019-04-21 23:16:26 15.4 31 12.6
002EEB25 2019-04-21 22:41:19 15.5 31 12.7
002EEB25 2019-04-21 22:06:12 15.4 31 13
002EEB25 2019-04-21 21:31:06 15.4 31 12.9
002EEB25 2019-04-21 20:55:59 15.4 31 12.8
002EEB25 2019-04-21 20:20:53 15.4 31 12.8
002EEB25 2019-04-21 19:45:47 15.4 31 12.9
002EEB25 2019-04-21 19:10:40 15.4 31 13
002EEB25 2019-04-21 18:35:33 15.4 31 13.1
002EEB25 2019-04-21 17:25:22 15.4 31 13.3
002EEB25 2019-04-21 16:50:15 15.4 31 13.6
002EEB25 2019-04-21 16:15:08 15.4 31 13.8
002EEB25 2019-04-21 15:39:59 15.4 31 13.9
002EEB25 2019-04-21 15:04:52 15.4 31 14
002EEB25 2019-04-21 14:29:44 15.4 31 14.2
002EEB25 2019-04-21 13:54:36 15.4 31 14.1
002EEB25 2019-04-21 13:19:29 15.5 31 14.2
002EEB25 2019-04-21 12:44:19 15.4 31 14.3
002EEB25 2019-04-21 12:09:11 15.5 31 14.3
002EEB25 2019-04-21 11:34:03 15.5 31 14.4
002EEB25 2019-04-21 10:58:55 15.6 31 14.4
002EEB25 2019-04-21 10:23:47 15.6 31 14.5
002EEB25 2019-04-21 09:48:39 15.6 31 14.4
002EEB25 2019-04-21 09:13:32 15.6 31 14.5
002EEB25 2019-04-21 08:38:28 15.6 31 14.4
002EEB25 2019-04-21 08:03:19 15.6 31 13.9
002EEB25 2019-04-21 07:28:11 15.6 31 13.7
002EEB25 2019-04-21 06:53:06 15.6 31 13.5
002EEB25 2019-04-21 06:17:57 15.6 31 13.5
002EEB25 2019-04-21 05:42:51 15.6 31 13.5
002EEB25 2019-04-21 05:07:42 15.6 31 13.4
002EEB25 2019-04-21 04:32:34 15.6 31 13.5
002EEB25 2019-04-21 03:57:27 15.6 31 13.4
002EEB25 2019-04-21 03:22:19 15.6 31 13.3
002EEB25 2019-04-21 02:47:11 15.6 31 13.1
002EEB25 2019-04-21 02:12:02 15.6 31 13
002EEB25 2019-04-21 01:36:53 15.6 30 12.6
002EEB25 2019-04-21 01:01:51 15.6 30 12.3
002EEB25 2019-04-21 00:26:48 15.6 30 12
002EEB25 2019-04-20 23:51:42 15.6 30 11.9
002EEB25 2019-04-20 23:16:33 15.6 30 12.2
002EEB25 2019-04-20 22:41:25 15.6 30 12.3
002EEB25 2019-04-20 22:06:19 15.6 30 12.6
002EEB25 2019-04-20 21:31:11 15.6 30 12.6
002EEB25 2019-04-20 20:56:03 15.6 30 12.7
002EEB25 2019-04-20 20:20:54 15.6 30 12.9
002EEB25 2019-04-20 19:45:48 15.6 30 12.7
002EEB25 2019-04-20 19:10:41 15.6 30 12.9
002EEB25 2019-04-20 18:35:35 15.6 30 12.8
002EEB25 2019-04-20 18:00:32 15.6 30 13
002EEB25 2019-04-20 17:25:28 15.6 30 13.1
002EEB25 2019-04-20 16:50:18 15.6 30 13.1
002EEB25 2019-04-20 16:15:13 15.6 30 13.3
002EEB25 2019-04-20 14:29:53 15.6 30 13.5
002EEB25 2019-04-20 13:54:46 15.6 30 13.6
002EEB25 2019-04-20 13:19:40 15.6 30 13.8
002EEB25 2019-04-20 12:44:34 15.6 30 13.7
002EEB25 2019-04-20 12:09:30 15.6 30 13.8
002EEB25 2019-04-20 11:34:22 15.6 30 13.9
002EEB25 2019-04-20 10:59:16 15.7 30 13.9
002EEB25 2019-04-20 10:24:11 15.7 30 13.9
002EEB25 2019-04-20 09:49:03 15.8 30 14
002EEB25 2019-04-20 09:14:01 15.8 30 14.1
002EEB25 2019-04-20 08:38:51 15.8 30 14.1
002EEB25 2019-04-20 08:03:47 15.8 30 14.1
002EEB25 2019-04-20 07:28:40 15.8 30 14
002EEB25 2019-04-20 06:53:33 15.8 29 13.6
002EEB25 2019-04-20 06:18:29 15.8 29 13.4
002EEB25 2019-04-20 05:43:21 15.8 29 13.3
002EEB25 2019-04-20 05:08:17 15.9 29 13.2
002EEB25 2019-04-20 04:33:11 15.8 29 13.1
002EEB25 2019-04-20 03:58:08 15.9 29 13.3
002EEB25 2019-04-20 03:22:59 16 29 13.4
002EEB25 2019-04-20 02:47:55 16 29 13.1
002EEB25 2019-04-20 02:12:48 16 29 13.1
002EEB25 2019-04-20 01:37:43 16 29 13
002EEB25 2019-04-20 01:02:36 16 29 13.1
002EEB25 2019-04-20 00:27:31 16 29 12.9
002EEB25 2019-04-19 23:52:25 16 29 12.9
002EEB25 2019-04-19 23:17:20 16 29 12.7
002EEB25 2019-04-19 22:42:15 16 29 12.8
002EEB25 2019-04-19 22:07:13 16 29 13.1
002EEB25 2019-04-19 21:32:08 16 29 13.3
002EEB25 2019-04-19 20:57:02 16 29 13.5
002EEB25 2019-04-19 20:21:58 16 29 13.8
002EEB25 2019-04-19 19:46:52 16 29 14
002EEB25 2019-04-19 19:11:47 16 29 14.2
002EEB25 2019-04-19 18:36:42 16 29 14.6
002EEB25 2019-04-19 18:01:39 16 29 14.8
002EEB25 2019-04-19 17:26:36 16 29 14.9
002EEB25 2019-04-19 16:51:35 16 29 15
002EEB25 2019-04-19 16:16:33 16 29 15.2
002EEB25 2019-04-19 15:41:29 16 29 15.3
002EEB25 2019-04-19 15:06:21 16 29 15.4
002EEB25 2019-04-19 14:31:16 16 29 15.5
002EEB25 2019-04-19 13:56:09 16 29 15.6
002EEB25 2019-04-19 13:21:03 16 28 15.7
002EEB25 2019-04-19 12:45:57 16 28 15.8
002EEB25 2019-04-19 12:10:52 16 28 15.9
002EEB25 2019-04-19 11:35:48 16 28 15.8
002EEB25 2019-04-19 11:00:41 16 28 15.8
002EEB25 2019-04-19 10:25:35 16 28 15.8
002EEB25 2019-04-19 09:50:31 16 28 15.8
002EEB25 2019-04-19 09:15:23 16 28 16.8
002EEB25 2019-04-19 08:40:19 16 28 17.5
002EEB25 2019-04-19 08:05:12 16 28 17.9
002EEB25 2019-04-19 07:30:07 16 28 18.4
002EEB25 2019-04-19 06:55:01 16.1 28 18.8
002EEB25 2019-04-19 06:19:56 16.3 28 19.4
002EEB25 2019-04-19 05:44:51 16.3 28 19.6
002EEB25 2019-04-19 05:09:47 16.3 28 20
002EEB25 2019-04-19 04:34:42 16.3 28 19.9
002EEB25 2019-04-19 03:59:38 16.3 28 19.9
002EEB25 2019-04-19 03:24:37 16.3 28 20.2
002EEB25 2019-04-19 02:49:36 16.4 28 20.6
002EEB25 2019-04-19 02:14:38 16.4 28 21
002EEB25 2019-04-19 01:39:34 16.5 28 21.2
002EEB25 2019-04-19 01:04:30 16.5 28 21.5
002EEB25 2019-04-19 00:29:26 16.5 28 21.7
002EEB25 2019-04-18 23:54:20 16.5 28 22
002EEB25 2019-04-18 23:19:17 16.5 28 22.4
002EEB25 2019-04-18 22:44:12 16.5 28 22.6
002EEB25 2019-04-18 22:09:12 16.5 28 22.6
002EEB25 2019-04-18 21:34:10 16.5 28 22.8
002EEB25 2019-04-18 20:59:08 16.5 28 22.8
002EEB25 2019-04-18 20:24:02 16.5 28 22.8
002EEB25 2019-04-18 19:48:59 16.5 28 22.8
002EEB25 2019-04-18 19:13:54 16.5 28 22.8
002EEB25 2019-04-18 18:38:50 16.5 27 22.6
002EEB25 2019-04-18 18:03:47 16.5 27 22.4
002EEB25 2019-04-18 17:28:44 16.5 27 22.2
002EEB25 2019-04-18 16:53:40 16.5 27 22
002EEB25 2019-04-18 16:18:37 16.5 27 21.8
002EEB25 2019-04-18 15:43:34 16.3 27 21.5
002EEB25 2019-04-18 15:08:29 16.3 27 21.3
002EEB25 2019-04-18 14:33:28 16.3 27 20.9
002EEB25 2019-04-18 13:58:19 16.3 27 21.1
002EEB25 2019-04-18 13:23:13 16.3 27 21
002EEB25 2019-04-18 12:48:08 16.4 27 20.8
002EEB25 2019-04-18 12:13:02 16.5 27 20.6
002EEB25 2019-04-18 11:38:01 16.5 27 20.4
002EEB25 2019-04-18 11:02:59 16.4 27 20.2
002EEB25 2019-04-18 10:27:55 16.5 27 19.9
002EEB25 2019-04-18 09:52:50 16.5 26 19.4
002EEB25 2019-04-18 09:17:43 16.5 26 18.8
002EEB25 2019-04-18 08:42:39 16.5 26 18.1
002EEB25 2019-04-18 08:07:34 16.5 26 18.4
002EEB25 2019-04-18 07:32:29 16.5 26 18.3
002EEB25 2019-04-18 06:57:27 16.5 26 18.5
002EEB25 2019-04-18 06:22:20 16.5 26 19
002EEB25 2019-04-18 05:47:14 16.6 26 19.6
002EEB25 2019-04-18 05:12:10 16.7 26 20
002EEB25 2019-04-18 04:37:05 16.7 26 20
002EEB25 2019-04-18 04:02:01 16.7 26 20.2
002EEB25 2019-04-18 03:26:56 16.7 26 20.2
002EEB25 2019-04-18 02:51:54 16.9 26 21.6
002EEB25 2019-04-18 02:16:51 16.9 26 21.6
002EEB25 2019-04-18 01:41:46 16.9 26 21.7
002EEB25 2019-04-18 01:06:41 16.9 26 21.7
002EEB25 2019-04-18 00:31:38 16.9 26 21.8
002EEB25 2019-04-17 23:56:36 17 26 21.8
002EEB25 2019-04-17 23:21:35 17 26 21.6
002EEB25 2019-04-17 22:46:33 17.1 26 21.6
002EEB25 2019-04-17 22:11:32 17.1 25 21.6
002EEB25 2019-04-17 21:36:36 17.1 25 21.6
002EEB25 2019-04-17 21:01:39 17.1 25 21.6
002EEB25 2019-04-17 20:26:41 17.1 25 21.6
002EEB25 2019-04-17 19:51:42 17.1 25 21.6
002EEB25 2019-04-17 19:16:43 17.1 25 21.6
002EEB25 2019-04-17 18:41:40 17.1 25 21.6
002EEB25 2019-04-17 18:06:37 17.3 25 21.7
002EEB25 2019-04-17 17:31:33 17.3 25 21.7
002EEB25 2019-04-17 16:56:31 17.3 25 21.7
002EEB25 2019-04-17 16:21:30 17.3 25 21.6
002EEB25 2019-04-17 15:46:31 17.4 25 21.5
002EEB25 2019-04-17 15:11:34 17.5 25 21.3
002EEB25 2019-04-17 14:36:38 17.5 25 21.1
002EEB25 2019-04-17 14:01:42 17.5 25 21.2
002EEB25 2019-04-17 12:51:43 17.6 24 21.1
002EEB25 2019-04-17 12:16:40 17.8 24 21
002EEB25 2019-04-17 11:41:44 17.8 24 19.4
002EEB25 2019-04-17 11:06:42 17.8 24 19.3
002EEB25 2019-04-17 10:31:41 17.9 24 19.2
002EEB25 2019-04-17 09:56:38 18 24 19
002EEB25 2019-04-17 09:21:38 18.1 24 18.9
002EEB25 2019-04-17 08:46:38 18.2 24 18.9
002EEB25 2019-04-17 08:11:37 18.2 24 18.8
002EEB25 2019-04-17 07:36:36 18.3 24 20.5
002EEB25 2019-04-17 07:01:36 18.4 24 20.4
002EEB25 2019-04-17 06:26:37 18.4 24 20.3
002EEB25 2019-04-17 05:51:37 18.6 24 20.4
002EEB25 2019-04-17 05:16:38 18.6 24 20.4
002EEB25 2019-04-17 04:41:37 18.6 24 20.2
002EEB25 2019-04-17 04:06:36 18.8 24 20
002EEB25 2019-04-17 03:31:35 18.8 23 19.9
002EEB25 2019-04-17 02:56:33 18.8 23 19.7
002EEB25 2019-04-17 02:21:31 19 23 19.6
002EEB25 2019-04-17 01:46:36 19 23 19.4
002EEB25 2019-04-17 01:11:40 19.1 23 19.3
002EEB25 2019-04-17 00:36:45 19.2 23 19.1
002EEB25 2019-04-17 00:01:48 19.2 23 18.9
002EEB25 2019-04-16 23:26:49 19.5 23 18.8
002EEB25 2019-04-16 22:51:48 19.5 23 18.6
002EEB25 2019-04-16 22:16:46 19.7 23 18.6
002EEB25 2019-04-16 21:41:46 19.7 23 18.6
002EEB25 2019-04-16 21:06:46 19.8 23 18.7
002EEB25 2019-04-16 20:31:45 19.9 23 18.7
002EEB25 2019-04-16 19:56:45 19.9 23 18.8
002EEB25 2019-04-16 19:21:44 20.1 23 18.8
002EEB25 2019-04-16 18:46:43 20.1 23 18.8
002EEB25 2019-04-16 18:11:46 20.3 23 18.9
002EEB25 2019-04-16 17:36:43 20.4 23 19
002EEB25 2019-04-16 17:01:43 20.5 23 16.3
002EEB25 2019-04-16 16:26:42 20.7 23 16.2
002EEB25 2019-04-16 15:51:42 20.7 23 16.1
002EEB25 2019-04-16 15:16:42 20.9 23 15.5
002EEB25 2019-04-16 14:41:44 21 23 15.1
002EEB25 2019-04-16 14:06:47 20.9 24 15.6
002EEB25 2019-04-16 12:56:50 20.9 24 15.6
002EEB25 2019-04-16 11:46:48 20.7 24 15.7
002EEB25 2019-04-16 11:11:48 20.7 24 15.9
002EEB25 2019-04-16 10:36:46 20.7 24 16.1
002EEB25 2019-04-16 10:01:45 20.7 24 16.4
002EEB25 2019-04-16 08:51:43 20.7 23 16
002EEB25 2019-04-16 08:16:45 20.7 23 16
002EEB25 2019-04-16 07:41:48 20.7 23 16.1
002EEB25 2019-04-16 07:06:52 20.7 23 15.8
002EEB25 2019-04-16 05:56:59 20.7 23 15.8
002EEB25 2019-04-16 05:21:57 20.8 23 15.8
002EEB25 2019-04-16 04:46:58 20.7 23 15.9
002EEB25 2019-04-16 04:11:56 20.7 23 15.7
002EEB25 2019-04-16 03:36:55 20.9 23 15.7
002EEB25 2019-04-16 03:01:57 20.8 23 15.5
002EEB25 2019-04-16 02:26:55 20.8 22 16.5
002EEB25 2019-04-16 01:51:54 21 22 16.8
002EEB25 2019-04-16 01:16:54 21 22 17.1
002EEB25 2019-04-16 00:41:52 21 22 17.5
002EEB25 2019-04-16 00:06:51 21 22 19.7
002EEB25 2019-04-15 23:31:52 21 22 20.1
002EEB25 2019-04-15 22:56:53 21 22 20.3
002EEB25 2019-04-15 22:21:53 21 22 20.6
002EEB25 2019-04-15 21:46:53 21 21 21
002EEB25 2019-04-15 21:11:54 21 21 21.2
002EEB25 2019-04-15 20:36:56 21.2 21 21.4
002EEB25 2019-04-15 20:01:56 21.2 21 21.7
002EEB25 2019-04-15 19:26:57 21.2 21 21.8
002EEB25 2019-04-15 18:51:59 21.3 21 21.9
002EEB25 2019-04-15 18:16:58 21.4 20 22
002EEB25 2019-04-15 17:41:59 21.4 20 23
002EEB25 2019-04-15 17:07:04 21.5 20 23.2
002EEB25 2019-04-15 16:32:02 21.6 20 23.7
002EEB25 2019-04-15 15:57:05 21.7 20 23.8
002EEB25 2019-04-15 15:22:07 21.8 19 24
002EEB25 2019-04-15 14:12:07 22 19 24.1
002EEB25 2019-04-15 13:37:05 22.2 18 24.2
002EEB25 2019-04-15 13:02:07 22.2 18 24.4
002EEB25 2019-04-15 12:27:04 22.4 18 24.5
002EEB25 2019-04-15 11:52:03 22.2 16 24.5
002EEB25 2019-04-15 11:17:04 22.2 16 24.6
002EEB25 2019-04-15 10:42:05 22.2 17 24.6
002EEB25 2019-04-15 10:07:07 22.2 17 24.6
002EEB25 2019-04-15 09:32:09 22.2 18 24.1
002EEB25 2019-04-15 08:57:10 22 17 24.2
002EEB25 2019-04-15 08:22:11 22 17 24.2
002EEB25 2019-04-15 07:47:13 22 17 24.2
002EEB25 2019-04-15 07:12:14 21.9 18 24.2
002EEB25 2019-04-15 06:37:17 21.8 18 24.2
002EEB25 2019-04-15 06:02:17 21.8 18 24.2
002EEB25 2019-04-15 05:27:17 21.8 18 24.1
002EEB25 2019-04-15 04:52:16 21.8 18 24.1
002EEB25 2019-04-15 04:17:17 21.8 18 24.2
002EEB25 2019-04-15 03:42:15 21.8 18 24.2
002EEB25 2019-04-15 03:07:14 21.8 18 23.6
002EEB25 2019-04-15 02:32:15 21.8 18 23.6
002EEB25 2019-04-15 01:57:17 21.8 18 23.5
002EEB25 2019-04-15 01:22:18 21.8 18 23.5
002EEB25 2019-04-15 00:47:17 21.8 18 23.5
002EEB25 2019-04-15 00:12:18 21.8 18 23.6
002EEB25 2019-04-14 23:37:17 21.8 18 23.6
002EEB25 2019-04-14 23:02:19 21.8 18 23.6
002EEB25 2019-04-14 22:27:20 21.9 18 23.5
002EEB25 2019-04-14 21:52:21 22 19 23.6
002EEB25 2019-04-14 21:17:24 22 19 23.6
002EEB25 2019-04-14 20:42:31 22 19 23.6
002EEB25 2019-04-14 20:07:32 22 19 23.6
002EEB25 2019-04-14 19:32:33 22 19 23.6
002EEB25 2019-04-14 18:57:39 22 19 23.6
002EEB25 2019-04-14 18:22:39 22 19 23.5
002EEB25 2019-04-14 17:47:41 22 19 23.5
002EEB25 2019-04-14 17:12:42 21.9 19 23.5
002EEB25 2019-04-14 16:37:44 22 19 24
002EEB25 2019-04-14 16:02:43 22 19 23.9
002EEB25 2019-04-14 15:27:45 22 19 23.9
002EEB25 2019-04-14 14:52:45 21.9 19 24
002EEB25 2019-04-14 14:17:46 22 19 24
002EEB25 2019-04-14 13:42:48 22 19 24
002EEB25 2019-04-14 13:07:48 22 19 23.9
002EEB25 2019-04-14 12:32:49 22 19 24
002EEB25 2019-04-14 11:57:49 22 19 24.5
002EEB25 2019-04-14 11:22:51 22 19 24.5
002EEB25 2019-04-14 10:47:52 22 19 24.5
002EEB25 2019-04-14 10:12:51 21.9 19 24.5
002EEB25 2019-04-14 09:37:52 22 19 24.5
002EEB25 2019-04-14 09:02:52 21.8 19 24.5
002EEB25 2019-04-14 08:27:54 21.9 19 24.5
002EEB25 2019-04-14 07:52:54 21.9 19 24.5
002EEB25 2019-04-14 07:17:56 21.9 18 24.5
002EEB25 2019-04-14 06:42:57 21.9 18 24.4
002EEB25 2019-04-14 06:07:59 21.9 18 24.4
002EEB25 2019-04-14 05:33:00 21.8 18 24.5
002EEB25 2019-04-14 04:58:04 21.9 18 24.5
002EEB25 2019-04-14 04:23:04 21.9 18 24.5
002EEB25 2019-04-14 03:48:04 22 18 24.5
002EEB25 2019-04-14 03:13:09 22 18 24.9
002EEB25 2019-04-14 02:38:15 22 18 24.9
002EEB25 2019-04-14 02:03:21 22 19 24.5
002EEB25 2019-04-14 01:28:25 22 19 24.6
002EEB25 2019-04-14 00:53:24 22 18 24.6
002EEB25 2019-04-14 00:18:26 22 18 24.5
002EEB25 2019-04-13 23:43:27 22 18 24.5
002EEB25 2019-04-13 23:08:27 22 18 24.5
002EEB25 2019-04-13 22:33:27 22.1 18 24.5
002EEB25 2019-04-13 21:58:28 22 18 24.6
002EEB25 2019-04-13 21:23:26 22.1 18 24.6
002EEB25 2019-04-13 20:48:26 22.1 18 24.5
002EEB25 2019-04-13 20:13:24 22.2 18 24.5
002EEB25 2019-04-13 19:38:22 22.2 18 24.4
002EEB25 2019-04-13 19:03:20 22.2 18 24.4
002EEB25 2019-04-13 18:28:19 22.2 18 24.5
002EEB25 2019-04-13 17:53:15 22.2 18 24.5
002EEB25 2019-04-13 17:18:13 22.2 18 24.6
002EEB25 2019-04-13 16:43:11 22.2 18 24.6
002EEB25 2019-04-13 16:08:09 22.2 18 24.5
002EEB25 2019-04-13 15:33:07 22.3 18 25
002EEB25 2019-04-13 14:58:04 22.4 18 24.9
002EEB25 2019-04-13 14:23:01 22.4 18 24.9
002EEB25 2019-04-13 13:48:00 22.5 18 24.9
002EEB25 2019-04-13 13:12:56 22.4 18 24.9
002EEB25 2019-04-13 12:37:53 22.4 18 24.4
002EEB25 2019-04-13 12:02:49 22.5 18 24.5
002EEB25 2019-04-13 11:27:48 22.5 18 24.4
002EEB25 2019-04-13 10:52:47 22.4 18 24.4
002EEB25 2019-04-13 10:17:47 22.4 18 24.4
002EEB25 2019-04-13 09:42:46 22.4 18 24.4
002EEB25 2019-04-13 09:07:45 22.5 18 24.4
002EEB25 2019-04-13 08:32:45 22.3 18 24.9
002EEB25 2019-04-13 07:57:45 22.4 18 25
002EEB25 2019-04-13 07:22:45 22.3 18 25
002EEB25 2019-04-13 06:47:44 22.3 18 24.5
002EEB25 2019-04-13 06:12:44 22.4 18 24.6
002EEB25 2019-04-13 05:37:42 22.3 18 25
002EEB25 2019-04-13 05:02:41 22.4 18 25.4
002EEB25 2019-04-13 04:27:40 22.4 18 25.8
002EEB25 2019-04-13 03:52:40 22.4 18 25.8
002EEB25 2019-04-13 03:17:40 22.5 18 25.7
002EEB25 2019-04-13 02:42:38 22.5 18 25.7
002EEB25 2019-04-13 02:07:37 22.5 18 25.8
002EEB25 2019-04-13 01:32:36 22.5 18 25.9
002EEB25 2019-04-13 00:57:34 22.5 18 25.6
002EEB25 2019-04-13 00:22:32 22.6 18 25.7
002EEB25 2019-04-12 23:47:29 22.7 19 25.8
002EEB25 2019-04-12 23:12:27 22.7 19 25.9
002EEB25 2019-04-12 22:37:26 22.7 19 26
002EEB25 2019-04-12 22:02:24 22.8 19 26.2
002EEB25 2019-04-12 21:27:21 22.9 19 26.2
002EEB25 2019-04-12 20:52:19 22.9 19 26.4
002EEB25 2019-04-12 20:17:16 22.9 19 26.5
002EEB25 2019-04-12 19:42:12 22.9 18 26.8
002EEB25 2019-04-12 19:07:10 22.9 18 27
002EEB25 2019-04-12 18:32:07 22.9 17 27.3
002EEB25 2019-04-12 17:57:04 23.1 17 26.8
002EEB25 2019-04-12 17:22:01 23.1 17 26.9
002EEB25 2019-04-12 16:46:59 23.1 18 27.3
002EEB25 2019-04-12 16:11:56 23.1 18 27.6
002EEB25 2019-04-12 15:36:55 22.9 18 28.1
002EEB25 2019-04-12 15:01:52 22.9 19 27.4
002EEB25 2019-04-12 14:26:49 22.5 20 26.1
002EEB25 2019-04-12 13:51:48 22.1 20 20.4
002EEB25 2019-04-12 13:16:46 21.4 22 6